Regional Weather Roundup
Issued by NWS Albany, NY

Home | Current Version | Previous Version | Text Only | Print | Product List | Glossary On
Versions: 1 2 3 4 5 6 7 8 9 10 11 12 13 14 15 16 17 18 19 20 21 22 23 24 25 26 27 28
000
ASUS41 KALY 230810
RWRALY

NEW YORK STATE HOURLY WEATHER ROUNDUP
NATIONAL WEATHER SERVICE ALBANY NY
300 AM EST FRI FEB 23 2018

NOTE: "FAIR" INDICATES FEW OR NO CLOUDS BELOW 12,000 FEET WITH NO
SIGNIFICANT WEATHER AND/OR NO OBSTRUCTIONS TO VISIBILITY.

NYZ032-033-038>043-046>054-057>066-NYZ062>081-082-084-230900-
EAST


CITY           SKY/WX    TMP DP  RH WIND       PRES   REMARKS
ALBANY         FAIR      22  17  81 NW3       30.69F
GLENS FALLS    FAIR      17  15  92 CALM      30.71S
POUGHKEEPSIE   CLOUDY    30  28  92 N5        30.65F WCI  25
NEWBURGH       CLOUDY    30  30 100 VRB6      30.66F WCI  24
MONTGOMERY     CLOUDY    31  29  92 N5        30.64F WCI  26
WHITE PLAINS   MOCLDY    33  31  92 E3        30.62F
ISLIP          CLOUDY    35  33  92 NE9       30.63F WCI  28
NEW YORK CITY  CLOUDY    37  32  82 E12       30.64F WCI  29
CENTRAL PARK   CLOUDY    36  32  85 VRB7      30.66F WCI  30
$$

NYZ005>009-017-018-044>046-055-056-230900-
CENTRAL


CITY           SKY/WX    TMP DP  RH WIND       PRES   REMARKS
FULTON         FAIR      31  30  96 VRB3      30.61F
SYRACUSE       CLOUDY    30  30 100 E9        30.61F WCI  22
ROME           CLOUDY    31  28  89 SE7       30.65F WCI  24
ELMIRA         CLOUDY    35  33  92 NE3       30.55F
BINGHAMTON     FOG       29  29 100 SE3       30.53F VSB 1/2
MONTICELLO     CLOUDY    29  28  96 SE8       30.60R WCI  21
$$

NYZ026>034-041>043-087-230900-
NORTH


CITY           SKY/WX    TMP DP  RH WIND       PRES   REMARKS
WATERTOWN      FAIR      20  18  92 NE5       30.63F WCI  13
FORT DRUM      NOT AVBL
OGDENSBURG     FAIR      17  16  94 CALM      30.66F
MASSENA        FAIR      16  14  92 CALM      30.69F
SARANAC LAKE   FAIR      13  12  96 MISG      30.57F
PLATTSBURGH    FAIR      18  14  84 CALM      30.71S
$$

NYZ001>004-010>016-019>021-085-230900-
WEST


CITY           SKY/WX    TMP DP  RH WIND       PRES   REMARKS
NIAGARA FALLS  CLOUDY    35  29  78 E13       30.49F WCI  26
BUFFALO        CLOUDY    34  31  88 E14       30.48F WCI  25
DUNKIRK        CLOUDY    34  33  96 NE6       30.46F WCI  29
JAMESTOWN        N/A    N/A N/A N/A MISG        N/A
WELLSVILLE     CLOUDY    33  32  96 SE10      30.45F FOG     WCI  25
ROCHESTER      CLOUDY    33  32  96 SE8       30.57F WCI  26
PENN YAN       CLOUDY    32  30  92 CALM      30.56F FOG
$$

             KEY
       WCI = WIND CHILL INDEX
       VSB = VISIBILITY
       HX  = HEAT INDEX
$$




USA.gov is the U.S. government's official web portal to all federal, state and local government web resources and services.